Weather reports worldwide

Advertisment
Kielder Castle, United Kingdom (99186): temperature & dewpoint: 19.01.2017 01:00:00 - 25.01.2017 01:00:00 (GMT)Kielder Castle, United Kingdom (99186): temperature -20cm & temperature -100cm: 19.01.2017 01:00:00 - 25.01.2017 01:00:00 (GMT)Kielder Castle, United Kingdom (99186): precipitation: 19.01.2017 01:00:00 - 25.01.2017 01:00:00 (GMT)
Date & Time tt [°C] td [°C] tt -20cm [°C] tt -100cm [°C] rr [mm]
25.01.2017 01:00:00 - - - - -
25.01.2017 00:00:00 6,9 6,4 - - 0,2
24.01.2017 23:00:00 7,0 6,4 - - 0,2
24.01.2017 22:00:00 7,0 6,5 - - 0,2
24.01.2017 21:00:00 7,0 6,4 - - 0,2
24.01.2017 20:00:00 6,9 6,3 - - 0,2
24.01.2017 19:00:00 6,7 6,2 - - 0,4
24.01.2017 18:00:00 6,7 6,2 - - 0,2
24.01.2017 17:00:00 6,4 5,8 - - 0,2
24.01.2017 16:00:00 6,4 6,0 - - 0,0
24.01.2017 15:00:00 6,4 6,0 - - 0,2
24.01.2017 14:00:00 6,3 5,8 - - 0,2
24.01.2017 13:00:00 6,2 5,8 - - 0,2
24.01.2017 12:00:00 5,9 5,5 - - 0,2
24.01.2017 11:00:00 5,4 5,0 - - 0,4
24.01.2017 10:00:00 4,7 4,1 - - 0,2
24.01.2017 09:00:00 5,0 3,3 4,2 5,7 0,0
24.01.2017 08:00:00 4,7 2,9 - - 0,0
24.01.2017 07:00:00 4,9 2,9 - - 0,0
24.01.2017 06:00:00 4,7 2,6 - - 0,0
24.01.2017 05:00:00 4,8 2,6 - - 0,0
24.01.2017 04:00:00 4,7 2,8 - - 0,0
24.01.2017 03:00:00 4,6 2,7 - - 0,0
24.01.2017 02:00:00 4,6 2,7 - - 0,0
24.01.2017 01:00:00 4,7 2,5 - - 0,0
24.01.2017 00:00:00 4,7 2,7 - - 0,0
23.01.2017 23:00:00 4,5 2,7 - - 0,0
23.01.2017 22:00:00 4,4 3,0 - - 0,0
23.01.2017 21:00:00 4,5 3,6 - - 0,0
23.01.2017 20:00:00 2,7 1,9 - - 0,0
23.01.2017 19:00:00 2,6 1,7 - - 0,0
23.01.2017 18:00:00 2,6 1,5 - - 0,0
23.01.2017 17:00:00 2,7 1,3 - - 0,0
23.01.2017 16:00:00 2,8 1,2 - - 0,0
23.01.2017 15:00:00 2,8 1,2 - - 0,0
23.01.2017 14:00:00 2,3 0,9 - - 0,0
23.01.2017 13:00:00 1,7 0,5 - - 0,0
23.01.2017 12:00:00 1,2 0,4 - - 0,0
23.01.2017 11:00:00 0,6 0,0 - - 0,0
23.01.2017 10:00:00 0,1 -0,2 - - 0,0
23.01.2017 09:00:00 -0,5 -0,7 4,2 5,7 0,0
23.01.2017 08:00:00 -1,2 -1,5 - - 0,0
23.01.2017 07:00:00 -0,9 -1,2 - - 0,0
23.01.2017 06:00:00 -0,8 -1,5 - - 0,0
23.01.2017 05:00:00 1,0 -0,3 - - 0,0
23.01.2017 04:00:00 1,8 0,4 - - 0,0
23.01.2017 03:00:00 2,0 0,4 - - 0,0
23.01.2017 02:00:00 1,9 0,6 - - 0,0
23.01.2017 01:00:00 1,8 0,7 - - 0,0
23.01.2017 00:00:00 1,6 0,7 - - 0,0
22.01.2017 23:00:00 1,7 0,5 - - 0,0
22.01.2017 22:00:00 1,6 0,3 - - 0,0
22.01.2017 21:00:00 1,3 0,4 - - 0,0
22.01.2017 20:00:00 1,2 0,2 - - 0,0
22.01.2017 19:00:00 0,9 0,1 - - 0,0
22.01.2017 18:00:00 0,8 -0,1 - - 0,0
22.01.2017 17:00:00 0,5 -0,6 - - 0,0
22.01.2017 16:00:00 0,6 -1,1 - - 0,0
22.01.2017 15:00:00 0,6 -1,3 - - 0,0
22.01.2017 14:00:00 0,7 -1,2 - - 0,0
22.01.2017 13:00:00 0,6 -0,9 - - 0,0
22.01.2017 12:00:00 0,6 -1,0 - - 0,0
22.01.2017 11:00:00 1,0 0,4 - - 0,0
22.01.2017 10:00:00 0,9 0,6 - - 0,0
22.01.2017 09:00:00 0,8 0,3 4,7 5,7 0,0
22.01.2017 08:00:00 1,0 0,3 - - 0,0
22.01.2017 07:00:00 1,4 0,4 - - 0,0
22.01.2017 06:00:00 1,7 1,1 - - 0,0
22.01.2017 05:00:00 1,7 1,1 - - 0,0
22.01.2017 04:00:00 1,8 1,4 - - 0,4
22.01.2017 03:00:00 2,0 1,6 - - 0,2
22.01.2017 02:00:00 2,0 1,5 - - 0,0
22.01.2017 01:00:00 2,0 1,5 - - 0,0
22.01.2017 00:00:00 2,1 1,5 - - 0,0
21.01.2017 23:00:00 2,1 1,4 - - 0,0
21.01.2017 22:00:00 1,7 1,2 - - 0,0
21.01.2017 21:00:00 1,4 0,8 - - 0,0
21.01.2017 20:00:00 1,3 0,8 - - 0,0
21.01.2017 19:00:00 1,2 0,7 - - 0,0
21.01.2017 18:00:00 1,1 0,5 - - 0,0
21.01.2017 17:00:00 1,1 0,1 - - 0,0
21.01.2017 16:00:00 1,3 0,3 - - 0,0
21.01.2017 15:00:00 0,9 0,0 - - 0,0
21.01.2017 14:00:00 0,7 -0,2 - - 0,0
21.01.2017 13:00:00 1,2 0,2 - - 0,0
21.01.2017 12:00:00 0,2 -0,4 - - 0,0
21.01.2017 11:00:00 -0,5 -0,8 - - 0,0
21.01.2017 10:00:00 -1,2 -1,5 - - 0,0
21.01.2017 09:00:00 -1,7 -2,2 5,0 5,7 0,0
21.01.2017 08:00:00 -1,4 -1,6 - - 0,0
21.01.2017 07:00:00 -1,1 -1,3 - - 0,0
21.01.2017 06:00:00 -1,0 -1,2 - - 0,0
21.01.2017 05:00:00 -0,5 -0,7 - - 0,0
21.01.2017 04:00:00 -0,1 -0,4 - - 0,0
21.01.2017 03:00:00 0,8 0,6 - - 0,0
21.01.2017 02:00:00 1,4 1,0 - - 0,0
21.01.2017 01:00:00 1,9 1,5 - - 0,0
21.01.2017 00:00:00 2,3 1,8 - - 0,0
20.01.2017 23:00:00 2,9 1,9 - - 0,0
20.01.2017 22:00:00 3,3 2,3 - - 0,0
20.01.2017 21:00:00 3,4 2,6 - - 0,0
20.01.2017 20:00:00 3,3 2,6 - - 0,0
20.01.2017 19:00:00 3,2 2,4 - - 0,0
20.01.2017 18:00:00 3,2 2,1 - - 0,0
20.01.2017 17:00:00 3,2 2,2 - - 0,0
20.01.2017 16:00:00 3,5 2,5 - - 0,0
20.01.2017 15:00:00 3,7 2,5 - - 0,0
20.01.2017 14:00:00 3,7 2,6 - - 0,0
20.01.2017 13:00:00 3,9 2,9 - - 0,2
20.01.2017 12:00:00 3,8 3,0 - - 0,0
20.01.2017 11:00:00 3,8 3,1 - - 0,0
20.01.2017 10:00:00 3,4 2,9 - - 0,0
20.01.2017 09:00:00 3,3 2,8 5,0 5,7 0,0
20.01.2017 08:00:00 3,3 2,9 - - 0,2
20.01.2017 07:00:00 3,3 2,8 - - 0,0
20.01.2017 06:00:00 3,3 2,9 - - 0,0
20.01.2017 05:00:00 3,4 3,0 - - 0,0
20.01.2017 04:00:00 3,4 2,9 - - 0,0
20.01.2017 03:00:00 3,5 2,9 - - 0,0
20.01.2017 02:00:00 3,8 3,2 - - 0,0
20.01.2017 01:00:00 4,1 3,3 - - 0,0
20.01.2017 00:00:00 4,3 3,5 - - 0,0
19.01.2017 23:00:00 4,4 3,4 - - 0,0
19.01.2017 22:00:00 4,6 3,5 - - 0,0
19.01.2017 21:00:00 4,8 3,5 - - 0,0
19.01.2017 20:00:00 5,0 3,7 - - 0,0
19.01.2017 19:00:00 5,3 3,6 - - 0,0
19.01.2017 18:00:00 5,4 3,4 - - 0,0
19.01.2017 17:00:00 5,5 3,2 - - 0,0
19.01.2017 16:00:00 5,8 3,3 - - 0,0
19.01.2017 15:00:00 6,1 3,4 - - 0,0
19.01.2017 14:00:00 6,4 3,3 - - 0,0
19.01.2017 13:00:00 6,6 3,4 - - 0,0
19.01.2017 12:00:00 6,7 3,5 - - 0,0
19.01.2017 11:00:00 6,5 3,8 - - 0,0
19.01.2017 10:00:00 6,0 3,6 - - -
19.01.2017 09:00:00 5,5 3,3 5,0 5,5 0,0
19.01.2017 08:00:00 5,3 3,2 - - 0,0
19.01.2017 07:00:00 5,6 3,2 - - 0,0
19.01.2017 06:00:00 5,8 3,2 - - 0,0
19.01.2017 05:00:00 5,8 3,5 - - 0,0
19.01.2017 04:00:00 5,6 3,1 - - 0,0
19.01.2017 03:00:00 5,5 3,3 - - 0,0
19.01.2017 02:00:00 5,8 3,2 - - 0,0
19.01.2017 01:00:00 5,7 3,3 - - 0,0

tt = temperature
td = dewpoint
tt -20cm = temperature -20cm
tt -100cm = temperature -100cm
rr = precipitation

Next stations